World > North America > United States > New York   City of New York, NY

New York, New York Regional Weather

Lat: 40.71N, Lon: 74.01W
Wx Zone: NYZ072Web Search
New York Weather Warning NWS WEATHER ALERT FOR THE NEW YORK, NY AREA - Issued: 323 PM EST Sun Nov 29 2020 New York Weather Warning  

Helpful Tip: Type the letters wx in the search engine next time you need to find us.

Feedback
New York Weather Map
UTC Time: 11/29/2020, 22:28
Your Time:

New York, NY Regional Weather

Expires:202011292300;;594372
ASUS41 KOKX 292214
RWROKX

Regional Weather Roundup
National Weather Service New York NY
500 PM EST SUN NOV 29 2020

Note: "FAIR" indicates few or no clouds below 12,000 feet with no
significant weather and/or obstructions to visibility.


NYZ071-072-176-178-NJZ106-104-292300-
New York City Metro Area
  
CITY           SKY/WX    TMP DP  RH WIND       PRES   REMARKS
Central Park   PTCLDY    52  22  30 SW7       30.13S                  
Bronx Lehman C   N/A     54  27  35 SW5         N/A                   
LaGuardia Arpt PTCLDY    52  29  41 S8        30.11S                  
Queens College   N/A     50  32  50 S6          N/A                   
Kennedy Intl   PTCLDY    47  36  65 S5        30.13S                  
Breezy Point     N/A     50 N/A N/A S5          N/A                   
Brooklyn Coll    N/A     52  32  46 S6          N/A                   
Staten Island    N/A     52  25  35 S3          N/A                   
Newark/Liberty MOCLDY    50  26  39 SW5       30.12S                  
Teterboro      PTCLDY    49  26  41 S5        30.10S                  
$$
 

SKY/WX - Weather  TMP - Temperature  DP - Dew Point  RH - Relative Humidity
WIND - Wind Direction/Speed PRES - Barometric Pressure VSB - Visibility
WCI - Wind Chill Index E13G22 Wind - East Wind 13 mph/Gusts of 22 mph